Weather Roundup
Issued by NWS

Current Version | Previous Version | Text Only | Print | Product List | Glossary On
Versions: 1 2 3 4 5 6 7 8 9 10 11 12 13 14 15 16 17 18 19 20 21 22 23 24 25 26 27 28 29 30 31 32 33 34 35 36 37 38 39 40 41 42 43 44 45 46 47 48 49 50
000
NZUS93 KARX 061010
HRRWXR

CURRENT HOURLY OBSERVATIONS ACROSS
MUCH OF THE UPPER MISSISSIPPI VALLEY
NATIONAL WEATHER SERVICE LA CROSSE WI
500 AM CDT THU AUG 06 2020


...SOUTHEAST MINNESOTA...


CITY           SKY/WX    TMP DP  RH WIND       PRES   REMARKS
ROCHESTER      CLOUDY    60  55  83 S7        30.10S
ROCHESTER/MAYO CLOUDY    64  55  72 SE6       30.09S
WINONA         CLEAR     57  57 100 CALM      30.10S
AUSTIN           N/A     61  57  88 SE5       30.09R
ALBERT LEA     MOCLDY    61  57  88 S6        30.07R
DODGE CENTER   CLOUDY    61  55  82 SE5       30.08S
PRESTON        CLOUDY    61  55  78 CALM      30.10S
OWATONNA       MOCLDY    61  55  82 SE7       30.06S
FARIBAULT      CLOUDY    63  57  82 SE8       30.05F
$$

...ELSEWHERE IN MINNESOTA...


CITY           SKY/WX    TMP DP  RH WIND       PRES   REMARKS
MINNEAPOLIS    PTCLDY    62  56  80 SE5       30.05R
INTNL FALLS    CLEAR     50  49  96 CALM      30.01R
DULUTH         CLEAR     59  54  83 W5        30.05S
RED WING       CLOUDY    61  55  82 CALM      30.06S
REDWOOD FALLS  CLOUDY    63  57  81 SE6       29.99S
MANKATO        CLOUDY    65  60  84 SE9       30.03F
WORTHINGTON    LGT RAIN  62  61  96 SE9       29.99F FOG
FAIRMONT       LGT RAIN  63  59  87 S9        30.03S
$$

...SOUTHWEST WISCONSIN...


CITY           SKY/WX    TMP DP  RH WIND       PRES   REMARKS
LA CROSSE      CLOUDY    59  54  83 SE6       30.10R
PRAIRIE DU CHI PTCLDY    58  55  91 E6        30.11S
BOSCOBEL       FOG       57  55  93 CALM      30.13R VSB 1/2
LONE ROCK      CLOUDY    53  52  96 CALM      30.13R FOG
PLATTEVILLE    MOCLDY    58  57  94 SE3       30.13S
FORT MC COY    CLEAR     43  42  98 CALM      30.12S
CAMP DOUGLAS   CLEAR     48  48 100 CALM      30.12R FOG
MAUSTON-NEW LI SUNNY     51  51 100 CALM      30.11S
VIROQUA        FAIR      58  56  94 SE5       30.13R
WIS DELLS      CLEAR     53  53  99 CALM      30.12S
$$

...ELSEWHERE IN WISCONSIN...


CITY           SKY/WX    TMP DP  RH WIND       PRES   REMARKS
MILWAUKEE      PTCLDY    61  57  87 CALM      30.12R
MADISON        PTCLDY    54  54 100 CALM      30.12S
GREEN BAY      CLOUDY    58  55  90 CALM      30.11S
EAU CLAIRE     CLEAR     52  50  93 CALM      30.08S
BLACK RVR FLS  PTSUNNY   44  43  97 CALM      30.12R
MEDFORD          N/A     46  46 100 CALM      30.12S FOG
WAUSAU         PTCLDY    52  52 100 E5        30.11S
WIS RAPIDS     CLEAR     52  50  93 CALM      30.13R
MARSHFIELD     CLEAR     53  51  93 CALM      30.11S
RICE LAKE      CLEAR     49  49  99 CALM      30.10S
$$

...NORTHEAST IOWA...


CITY           SKY/WX    TMP DP  RH WIND       PRES   REMARKS
WATERLOO       CLOUDY    66  56  70 SE8       30.08R
DUBUQUE        MOCLDY    59  56  89 CALM      30.13S
DECORAH        MOCLDY    61  59  94 SE5       30.09S
MASON CITY     MOCLDY    60  57  89 S8        30.07F
CHARLES CITY   CLOUDY    61  59  94 SE6       30.09S
OELWEIN        CLOUDY    61  57  88 SE6       30.11R
$$

...ELSEWHERE IN IOWA...


CITY           SKY/WX    TMP DP  RH WIND       PRES   REMARKS
DES MOINES     CLOUDY    65  56  72 SE9       30.05R
IOWA CITY      MOCLDY    63  57  81 E3        30.12S
FORT DODGE     LGT RAIN  64  60  87 SE7       30.04S
MARSHALLTOWN   MOCLDY    60  59  96 E6        30.07S
CEDAR RAPIDS   CLOUDY    60  57  89 S5        30.10S
$$

...NORTHERN ILLINOIS...


CITY           SKY/WX    TMP DP  RH WIND       PRES   REMARKS
CHICAGO-OHARE  CLOUDY    67  57  70 SW3       30.12R
CHICAGO-MIDWAY CLOUDY    65  55  70 CALM      30.12R
MOLINE         PTCLDY    60  55  83 CALM      30.12S
ROCKFORD       PTCLDY    58  54  86 CALM      30.15R
PEORIA         PTCLDY    57  54  89 CALM      30.13S
$$

NOTE: "FAIR" INDICATES FEW OR NO CLOUDS BELOW 12,000 FEET WITH NO
SIGNIFICANT WEATHER AND/OR OBSTRUCTIONS TO VISIBILITY. WIND
SPEEDS ARE IN MILES-PER-HOUR.




USA.gov is the U.S. government's official web portal to all federal, state and local government web resources and services.